[[{"header":{"parameterUnit":"m.s-1","parameterCategory":1,"la1":30.2991,"la2":30.254,"lo1":-89.0895,"lo2":-89.0444,"dy":0.0017,"dx":0.0017,"nx":28,"ny":28,"refTime":"2024-06-21T21:00:00:Z","depth":0,"parameterNumber":2,"parameterNumberName":"U-component_of_WINDS"},"data":[0,0,0,0,0,0,0,0,0,0,0,0,0,0,0,0,0,0,0,0,0,0,0,0,0,0,0,0,0,0,0,0,0,0,0,0,0,0,0,0,0,0,0,0,0,0,0,0,0,0,0,0,0,0,0,0,0,0,0.5708,0.571,0,0.5828,0.5829,0.5831,0.5888,0.5888,0.5888,0.5888,0.601,0.6013,0.6016,0,0,0,0,0,0,0,0,0,0,0,0,0,0.5526,0.5529,0.5708,0.571,0.5711,0.5828,0.583,0.5831,0.5888,0.5888,0.5888,0.5888,0.6009,0.6013,0.6017,0,0,0,0,0,0,0,0,0,0,0,0,0,0.5622,0.553,0.5708,0.5754,0.5759,0.5828,0.583,0.5832,0.5888,0.5888,0.5888,0.5888,0.6007,0.6012,0.6017,0.6049,0,0,0.6032,0.6034,0,0,0,0,0,0,0,0,0.5616,0.5628,0.5745,0.5751,0.5757,0.5843,0.581,0.5904,0.5888,0.5839,0.5888,0.5888,0.5954,0.5964,0.5986,0.6055,0.606,0.6033,0.6036,0.6038,0.6039,0,0,0,0,0,0,0,0.5609,0.5623,0.5756,0.5747,0.5754,0.5767,0.5781,0.5828,0.5896,0.5843,0.5848,0.5861,0.5957,0.5981,0.5989,0.6062,0.6032,0.6037,0.604,0.6042,0.6162,0.6162,0,0,0,0,0,0,0.5596,0.5617,0.5752,0.5759,0.5685,0.5771,0.5786,0.5815,0.5895,0.5907,0.5861,0.5863,0.5973,0.5984,0.5994,0.6037,0.6038,0.6042,0.6045,0.6162,0.6162,0.6162,0,0,0,0,0,0,0.5591,0.5607,0.5747,0.569,0.5708,0.5774,0.5807,0.5818,0.5842,0.5909,0.5921,0.5873,0.5973,0.5987,0.6035,0.6042,0.6045,0.6049,0.6161,0.6162,0.6162,0.6122,0,0,0,0,0,0,0.5586,0.5605,0.5619,0.5689,0.5711,0.5786,0.5807,0.582,0.585,0.5854,0.5923,0.5935,0.5974,0.6027,0.604,0.6049,0.6053,0.6161,0.6162,0.6162,0.6123,0.6121,0.6119,0,0,0,0,0,0.5579,0.5602,0.5619,0.5635,0.5729,0.5786,0.5799,0.5844,0.5851,0.5864,0.5907,0.5933,0.6039,0.6032,0.6046,0.6057,0.6161,0.6162,0.6162,0.6124,0.6121,0.6119,0,0,0,0,0,0,0.5531,0.5613,0.5632,0.5679,0.5725,0.5796,0.5815,0.584,0.5885,0.5887,0.5941,0.5956,0.5999,0.6033,0.6023,0.6091,0.6102,0.6106,0.6068,0.6066,0.6064,0.6056,0.6057,0,0,0,0,0,0.5525,0.5565,0.5635,0.5669,0.5691,0.5749,0.5775,0.5806,0.5856,0.5876,0.5923,0.597,0.6014,0.6042,0.6086,0.6128,0.6144,0.6142,0.614,0.6138,0.6141,0.6165,0.6165,0.6164,0.6164,0.6164,0,0,0.5515,0.5564,0.5586,0.5661,0.57,0.574,0.5765,0.5806,0.5836,0.5882,0.5931,0.5966,0.6022,0.6067,0.6089,0.6096,0.6144,0.6139,0.6137,0.6141,0.6165,0.6165,0.6165,0.6164,0.6164,0.6164,0,0,0.5516,0.5558,0.5591,0.563,0.569,0.5728,0.5735,0.5802,0.5828,0.5877,0.5912,0.5948,0.6023,0.6061,0.6091,0.6105,0.613,0.6118,0.6108,0.6131,0.6131,0.6131,0.6136,0.6137,0.612,0.612,0.612,0,0.5495,0.5557,0.5605,0.5644,0.5675,0.5719,0.5752,0.5788,0.5858,0.5879,0.5886,0.598,0.6021,0.6075,0.6079,0.6101,0.6111,0.6111,0.6127,0.6128,0.6129,0.6134,0.6136,0.6118,0.6118,0.6118,0.6119,0,0.5529,0.5571,0.559,0.5658,0.5691,0.5727,0.578,0.5807,0.5835,0.5871,0.592,0.5971,0.6026,0.6041,0.6068,0.6099,0.6101,0.6117,0.6129,0.6126,0.6132,0.6135,0.6115,0.6116,0.6117,0.6117,0,0,0.5504,0.5596,0.5603,0.5634,0.5702,0.5735,0.5773,0.5827,0.5849,0.5896,0.5929,0.599,0.6005,0.6038,0.607,0.609,0.6097,0.6103,0.6105,0.61,0.6134,0.6122,0.6124,0.6114,0.6115,0.6115,0.6129,0,0.5515,0.5585,0.5628,0.568,0.572,0.5761,0.5793,0.5838,0.5873,0.5911,0.595,0.5993,0.6009,0.6029,0.605,0.6092,0.6105,0.6091,0.6145,0.6146,0.613,0.6127,0.6115,0.6126,0.6132,0.6132,0.6133,0,0.5537,0.5583,0.5639,0.5703,0.5721,0.575,0.5802,0.5838,0.5889,0.5913,0.5949,0.5981,0.6022,0.6029,0.6086,0.6076,0.61,0.6123,0.6125,0.6132,0.614,0.6134,0.6131,0.6132,0.6137,0.6137,0.6136,0,0.5514,0.5589,0.5633,0.5658,0.5733,0.5752,0.5784,0.5835,0.5865,0.591,0.593,0.5979,0.6006,0.6043,0.6087,0.6089,0.6139,0.6151,0.616,0.6159,0.6169,0.6168,0.617,0.6184,0.6184,0.6184,0.6184,0,0.5522,0.5554,0.5623,0.565,0.5687,0.5736,0.5772,0.5807,0.5852,0.5886,0.5924,0.5955,0.6011,0.6048,0.6083,0.6124,0.6136,0.6156,0.6165,0.6153,0.6151,0.617,0.6171,0.6184,0.6184,0.6184,0.6184,0,0.5502,0.555,0.56,0.5666,0.5684,0.5708,0.5765,0.5792,0.5829,0.5871,0.5883,0.594,0.5986,0.6034,0.6096,0.6119,0.6159,0.6171,0.6142,0.6147,0.6153,0.6152,0.6168,0.6172,0.6183,0.6183,0.6182,0,0.5505,0.5531,0.56,0.5626,0.5657,0.5697,0.5727,0.5776,0.5805,0.5865,0.5885,0.5933,0.5975,0.6046,0.6093,0.6141,0.6154,0.6156,0.6162,0.6149,0.6155,0.6153,0.6155,0.6155,0.6154,0.6154,0.6154,0,0.5504,0.5526,0.5568,0.5618,0.5653,0.5694,0.5737,0.5756,0.5812,0.5843,0.5891,0.5923,0.5986,0.6034,0.6086,0.6119,0.6146,0.6152,0.6156,0.6145,0.6127,0.6137,0.6137,0.6151,0.6152,0.6152,0.6152,0.6152,0.5496,0.5521,0.5573,0.5619,0.5656,0.5695,0.5723,0.5763,0.5804,0.5859,0.5885,0.5932,0.5982,0.6056,0.6087,0.6125,0.6132,0.6139,0.6141,0.6142,0.6139,0.612,0.6134,0.6135,0.6135,0.6135,0.6135,0,0.5497,0.5533,0.5574,0.5633,0.5668,0.569,0.5738,0.5766,0.5808,0.5852,0.5892,0.5946,0.5992,0.6042,0.6091,0.6111,0.6124,0.6122,0.6121,0.6128,0.6129,0.6121,0.611,0.611,0.611,0.611,0.611,0.611,0.5502,0.5545,0.5573,0.5635,0.567,0.5717,0.5743,0.5779,0.5814,0.5873,0.5912,0.5944,0.599,0.6042,0.6085,0.6099,0.6115,0.6109,0.6126,0.6126,0.6128,0.613,0.6122,0.6113,0.6113,0.6122,0.6123,0.6123]},{"header":{"parameterUnit":"m.s-1","parameterCategory":1,"la1":30.2991,"la2":30.254,"lo1":-89.0895,"lo2":-89.0444,"dy":0.0017,"dx":0.0017,"nx":28,"ny":28,"refTime":"2024-06-21T21:00:00:Z","depth":0,"parameterNumber":3,"parameterNumberName":"V-component_of_WINDS"},"data":[0,0,0,0,0,0,0,0,0,0,0,0,0,0,0,0,0,0,0,0,0,0,0,0,0,0,0,0,0,0,0,0,0,0,0,0,0,0,0,0,0,0,0,0,0,0,0,0,0,0,0,0,0,0,0,0,0,0,4.08,4.0799,0,4.078,4.0779,4.0779,4.0742,4.0742,4.0741,4.074,4.072,4.072,4.072,0,0,0,0,0,0,0,0,0,0,0,0,0,4.0807,4.0807,4.08,4.0799,4.0799,4.078,4.0779,4.0779,4.0742,4.0742,4.0741,4.074,4.072,4.072,4.072,0,0,0,0,0,0,0,0,0,0,0,0,0,4.0797,4.0807,4.08,4.0778,4.0776,4.078,4.0779,4.0779,4.0743,4.0742,4.074,4.0739,4.072,4.072,4.072,4.0743,0,0,4.0721,4.0721,0,0,0,0,0,0,0,0,4.0798,4.0797,4.0782,4.078,4.0778,4.0762,4.0774,4.0767,4.0743,4.0755,4.074,4.0739,4.0735,4.0734,4.0733,4.0742,4.0741,4.0721,4.0721,4.0721,4.0721,0,0,0,0,0,0,0,4.0798,4.0797,4.0792,4.0782,4.0779,4.077,4.0768,4.0773,4.0751,4.0754,4.0752,4.075,4.0734,4.0732,4.0732,4.0741,4.0721,4.0721,4.0721,4.0721,4.0768,4.0769,0,0,0,0,0,0,4.0802,4.0798,4.0792,4.0791,4.0785,4.0771,4.0768,4.0768,4.0751,4.0748,4.0751,4.0748,4.0733,4.0732,4.0731,4.0756,4.0721,4.0721,4.0721,4.0766,4.0768,4.0769,0,0,0,0,0,0,4.0802,4.0802,4.0793,4.0794,4.0792,4.0772,4.0773,4.0768,4.0767,4.0748,4.0745,4.0753,4.0732,4.0731,4.074,4.0755,4.0721,4.0722,4.0765,4.0767,4.0768,4.0806,0,0,0,0,0,0,4.0803,4.0802,4.081,4.0794,4.0792,4.0802,4.0773,4.0769,4.0767,4.0764,4.075,4.0747,4.0731,4.074,4.074,4.0754,4.0722,4.0764,4.0766,4.0768,4.0803,4.0809,4.0813,0,0,0,0,0,4.0803,4.0822,4.0811,4.081,4.0802,4.0803,4.0802,4.0784,4.0769,4.0777,4.0765,4.0747,4.0753,4.0741,4.0741,4.0756,4.0763,4.0765,4.0768,4.0801,4.0808,4.0813,0,0,0,0,0,0,4.084,4.0819,4.0807,4.0821,4.0814,4.0797,4.0807,4.0791,4.0788,4.0785,4.0763,4.076,4.0772,4.0765,4.0752,4.0776,4.0755,4.0758,4.0781,4.0787,4.0792,4.0793,4.0722,0,0,0,0,0,4.085,4.0852,4.0834,4.0848,4.0846,4.0827,4.0827,4.0813,4.0805,4.0802,4.0791,4.0784,4.0785,4.0785,4.0785,4.0802,4.0799,4.0812,4.0817,4.0822,4.0824,4.0833,4.0838,4.0777,4.0777,4.0777,0,0,4.087,4.0859,4.0862,4.0856,4.0849,4.0852,4.0825,4.083,4.0832,4.0803,4.0811,4.0803,4.0794,4.0808,4.0813,4.0802,4.084,4.0825,4.0828,4.0828,4.0836,4.0842,4.0847,4.0779,4.0779,4.0778,0,0,4.0908,4.09,4.0911,4.0905,4.0895,4.0882,4.0885,4.087,4.0864,4.0872,4.085,4.0853,4.0854,4.0848,4.0846,4.0883,4.0866,4.0883,4.0909,4.0918,4.0923,4.0927,4.094,4.0945,4.0886,4.0886,4.0886,0,4.0934,4.0938,4.0919,4.0925,4.0923,4.0897,4.0908,4.0903,4.0893,4.0892,4.088,4.0881,4.0873,4.0885,4.0894,4.0893,4.0896,4.0884,4.0924,4.0927,4.0931,4.0943,4.0948,4.0888,4.0888,4.0888,4.0887,0,4.0971,4.0974,4.0984,4.0976,4.0975,4.0983,4.0965,4.0967,4.0953,4.0942,4.0951,4.0941,4.0937,4.0939,4.0926,4.095,4.0943,4.0928,4.0906,4.0939,4.095,4.0955,4.0891,4.089,4.089,4.0889,0,0,4.1031,4.1011,4.1015,4.1011,4.0999,4.1001,4.1009,4.1005,4.1007,4.1002,4.1007,4.1009,4.0995,4.0992,4.0979,4.0987,4.1016,4.097,4.0969,4.0978,4.1041,4.1052,4.1058,4.1005,4.1006,4.1007,4.1041,0,4.1066,4.1077,4.106,4.1075,4.1078,4.1054,4.1061,4.1054,4.1044,4.1046,4.1035,4.1036,4.1018,4.1016,4.1022,4.1011,4.1028,4.1009,4.101,4.1011,4.1013,4.1063,4.1075,4.1108,4.1045,4.1046,4.1047,0,4.1108,4.1104,4.112,4.1107,4.1107,4.1114,4.1109,4.1111,4.1103,4.1095,4.1092,4.1076,4.1083,4.1063,4.1072,4.1059,4.1059,4.1053,4.1054,4.1053,4.103,4.1063,4.1118,4.1123,4.1053,4.1053,4.1052,0,4.1149,4.1149,4.1158,4.1155,4.114,4.1145,4.1139,4.113,4.1129,4.1126,4.1125,4.1123,4.1121,4.112,4.1104,4.109,4.1115,4.1093,4.1109,4.1109,4.1114,4.1114,4.1169,4.1115,4.1115,4.1115,4.1115,0,4.119,4.12,4.1176,4.1182,4.1193,4.1174,4.1185,4.1177,4.1169,4.1173,4.1153,4.1157,4.1135,4.1137,4.1125,4.1134,4.1134,4.1128,4.1124,4.1129,4.113,4.1128,4.1125,4.1116,4.1116,4.1116,4.1116,0,4.1237,4.1222,4.123,4.1215,4.1212,4.1221,4.1208,4.1213,4.1202,4.1207,4.1207,4.119,4.1192,4.1176,4.1174,4.1165,4.118,4.1173,4.1183,4.118,4.1196,4.1195,4.1252,4.1258,4.1201,4.1202,4.1202,0,4.1264,4.1271,4.1257,4.1258,4.1253,4.1255,4.1254,4.1236,4.1236,4.1228,4.1233,4.1233,4.1231,4.1235,4.1222,4.1221,4.1213,4.1233,4.1212,4.1217,4.1212,4.1212,4.1212,4.1237,4.1238,4.1238,4.1239,0,4.1312,4.1304,4.1303,4.1301,4.13,4.1297,4.1293,4.1295,4.1275,4.1276,4.1277,4.1276,4.1274,4.1273,4.127,4.1264,4.1248,4.1246,4.1249,4.1254,4.1259,4.1256,4.1194,4.1244,4.1244,4.1243,4.1243,4.1243,4.1349,4.1355,4.1346,4.1346,4.1341,4.1337,4.1341,4.1331,4.1331,4.1328,4.1317,4.132,4.1312,4.1306,4.1301,4.1303,4.1293,4.1298,4.13,4.1301,4.1304,4.1259,4.1303,4.1302,4.1302,4.1302,4.1302,0,4.1396,4.1389,4.139,4.1384,4.1384,4.137,4.1364,4.1366,4.1368,4.1362,4.1361,4.1363,4.1362,4.135,4.1349,4.1353,4.1346,4.1353,4.1352,4.1351,4.1313,4.131,4.1359,4.1359,4.1359,4.1359,4.1359,4.1359,4.142,4.1429,4.142,4.1426,4.1419,4.1421,4.1419,4.1416,4.1411,4.1414,4.1413,4.1405,4.1397,4.1395,4.1394,4.1391,4.1391,4.1401,4.1395,4.1359,4.1354,4.1348,4.1345,4.1401,4.1401,4.1432,4.1433,4.1433]}]]